FW9958 Weather Reports


time (UTC)temp
C
wind
direction
speed
KPH
gust
KPH
rain 1hr
cm
rain 24hr
cm
rain mn
cm
humidity
%
barometer
mb
20260906203104 41 145 1.6 14.5 0.00 0.00 0.00 28 1012.3
20260906201601 40 115 3.2 14.5 0.00 0.00 0.00 30 1012.5
20260906200106 40 11 1.6 16.1 0.00 0.00 0.00 29 1012.7
20260906194602 39 199 9.7 19.3 0.00 0.00 0.00 31 1013.0
20260906193108 38 134 3.2 11.3 0.00 0.00 0.00 33 1013.1
20260906191610 39 184 4.8 16.1 0.00 0.00 0.00 32 1013.4
20260906190105 38 140 4.8 19.3 0.00 0.00 0.00 33 1013.5
20260906184602 39 162 4.8 16.1 0.00 0.00 0.00 33 1013.7
20260906183057 38 155 6.4 17.7 0.00 0.00 0.00 33 1013.9
20260906181559 39 360 3.2 14.5 0.00 0.00 0.00 33 1014.1
20260906180124 38 83 4.8 11.3 0.00 0.00 0.00 35 1014.4
20260906174606 37 137 3.2 16.1 0.00 0.00 0.00 37 1014.7
20260906173102 38 158 6.4 17.7 0.00 0.00 0.00 37 1015.0
20260906171600 38 164 6.4 16.1 0.00 0.00 0.00 37 1015.1
20260906170106 38 312 4.8 16.1 0.00 0.00 0.00 37 1015.3
20260906164557 38 175 1.6 6.4 0.00 0.00 0.00 37 1015.3
20260906163104 38 231 3.2 12.9 0.00 0.00 0.00 38 1015.7
20260906161559 37 166 1.6 14.5 0.00 0.00 0.00 41 1015.6
20260906160100 36 195 3.2 9.7 0.00 0.00 0.00 42 1015.5
20260906154601 35 155 4.8 9.7 0.00 0.00 0.00 43 1015.5
20260906153115 35 166 4.8 11.3 0.00 0.00 0.00 44 1015.4
20260906151603 35 251 3.2 11.3 0.00 0.00 0.00 44 1015.4
20260906150103 35 205 4.8 14.5 0.00 0.00 0.00 46 1015.3
20260906144603 33 261 4.8 12.9 0.00 0.00 0.00 49 1015.3
20260906143100 32 235 4.8 11.3 0.00 0.00 0.00 53 1015.3
20260906141601 30 167 6.4 12.9 0.00 0.00 0.00 56 1015.3
20260906140108 28 236 4.8 12.9 0.00 0.00 0.00 61 1015.1
20260906134615 27 236 4.8 11.3 0.00 0.00 0.00 65 1015.0
20260906133110 26 216 3.2 6.4 0.00 0.00 0.00 67 1014.9
20260906131559 26 165 1.6 6.4 0.00 0.00 0.00 69 1014.8
20260906124602 25 169 1.6 4.8 0.00 0.00 0.00 70 1014.4
20260906123103 25 181 3.2 8.0 0.00 0.00 0.00 69 1014.3
20260906121556 25 184 3.2 8.0 0.00 0.00 0.00 70 1014.1
20260906114602 25 0 0.0 3.2 0.00 0.00 0.00 68 1013.8
20260906113100 26 0 0.0 4.8 0.00 0.00 0.00 65 1013.7
20260906111604 26 153 3.2 6.4 0.00 0.00 0.00 65 1013.3
20260906110103 26 178 1.6 6.4 0.00 0.00 0.00 64 1013.3
20260906104558 26 154 1.6 6.4 0.00 0.00 0.00 65 1013.3
20260906103111 26 162 3.2 8.0 0.00 0.00 0.00 66 1013.2
20260906101600 25 170 3.2 6.4 0.00 0.00 0.00 66 1013.2
20260906100105 26 0 0.0 1.6 0.00 0.00 0.00 64 1013.2
20260906094601 26 0 0.0 1.6 0.00 0.00 0.00 62 1013.1
20260906093059 26 0 0.0 0.0 0.00 0.00 0.00 60 1013.1
20260906091602 27 0 0.0 1.6 0.00 0.00 0.00 59 1013.1
20260906090118 27 150 0.0 4.8 0.00 0.00 0.00 57 1013.0
20260906084558 27 173 1.6 6.4 0.00 0.00 0.00 57 1012.9
20260906083056 27 184 1.6 6.4 0.00 0.00 0.00 57 1012.9
20260906081600 27 164 0.0 3.2 0.00 0.00 0.00 56 1013.0
20260906080126 27 0 0.0 1.6 0.00 0.00 0.00 55 1012.9
20260906074610 28 209 1.6 4.8 0.00 0.00 0.00 54 1013.0
20260906073114 28 190 1.6 6.4 0.00 0.00 0.00 53 1012.9
20260906071558 28 169 3.2 8.0 0.00 0.00 0.00 53 1013.0
20260906070058 28 167 3.2 9.7 0.00 0.00 0.00 52 1013.0
20260906064602 29 161 4.8 9.7 0.00 0.00 0.00 52 1013.0
20260906063100 29 190 4.8 9.7 0.00 0.00 0.00 51 1013.0
20260906061601 29 169 4.8 12.9 0.00 0.00 0.00 51 1012.9
20260906060105 30 171 6.4 12.9 0.00 0.00 0.00 50 1013.0
20260906054604 30 161 6.4 11.3 0.00 0.00 0.00 50 1012.9
20260906053100 30 224 4.8 9.7 0.00 0.00 0.00 50 1012.8
20260906051605 30 187 4.8 9.7 0.00 0.00 0.00 48 1012.7
20260906050107 30 163 3.2 9.7 0.00 0.00 0.00 47 1012.8
20260906044600 30 184 6.4 12.9 0.00 0.00 0.00 47 1012.7
20260906043101 31 171 4.8 9.7 0.00 0.00 0.00 48 1012.8
20260906041605 31 175 3.2 8.0 0.00 0.00 0.00 46 1012.8
20260906034639 31 178 4.8 9.7 0.00 0.00 0.00 44 1012.9
20260906033055 32 175 6.4 11.3 0.00 0.00 0.00 44 1012.7
20260906031554 32 144 4.8 8.0 0.00 0.00 0.00 43 1012.7
20260906024555 32 159 3.2 9.7 0.00 0.00 0.00 43 1012.5
20260906023101 32 163 3.2 8.0 0.00 0.00 0.00 42 1012.4
20260906021603 33 156 1.6 6.4 0.00 0.00 0.00 42 1012.2
20260906020107 33 178 4.8 9.7 0.00 0.00 0.00 41 1012.1
20260906014559 33 178 3.2 8.0 0.00 0.00 0.00 40 1012.1
20260906013106 33 178 1.6 6.4 0.00 0.00 0.00 39 1011.7
20260906011603 34 0 1.6 6.4 0.00 0.00 0.00 38 1011.5
20260906010104 35 159 3.2 6.4 0.00 0.00 0.00 36 1011.5
20260906004605 36 135 4.8 12.9 0.00 0.00 0.00 35 1011.4
20260906003102 36 149 4.8 12.9 0.00 0.00 0.00 34 1011.3
20260906001603 37 156 4.8 16.1 0.00 0.00 0.00 32 1011.1
20260906000109 37 157 3.2 12.9 0.00 0.00 0.00 31 1011.2
20260905234621 37 131 3.2 16.1 0.00 0.00 0.00 32 1011.1
20260905233102 38 82 4.8 12.9 0.00 0.00 0.00 30 1010.9
20260905231605 38 126 3.2 14.5 0.00 0.00 0.00 30 1010.9
20260905230106 38 163 8.0 19.3 0.00 0.00 0.00 30 1010.9
20260905224612 38 148 4.8 16.1 0.00 0.00 0.00 32 1010.9
20260905223120 39 26 3.2 19.3 0.00 0.00 0.00 30 1010.9
20260905221559 40 162 9.7 22.5 0.00 0.00 0.00 30 1010.9
20260905220125 39 178 8.0 22.5 0.00 0.00 0.00 31 1010.9
20260905214610 40 170 8.0 19.3 0.00 0.00 0.00 30 1011.0
20260905213105 40 183 4.8 19.3 0.00 0.00 0.00 30 1011.2
20260905211608 40 146 11.3 20.9 0.00 0.00 0.00 30 1011.5
20260905210109 39 159 8.0 19.3 0.00 0.00 0.00 31 1011.8
20260905204558 39 158 8.0 19.3 0.00 0.00 0.00 31 1011.9